FENGYUN 1C DEB

Satellite information

Favourite Embed

Satellite Type and Status

DEBRISIN ORBIT

Key statistics

Satellite FENGYUN 1C DEB at a glance.

Uptime

9714

Days in orbit

Revolutions

≈ 14.3

Per day

Orbit

SSO

Sun Synchronous Orbit

Inclination

98.5

Latest

Satellite identification and parameters

Extended collection of information and parameters for FENGYUN 1C DEB.

Object identification

Identified? True

Debris? True

Object name: FENGYUN 1C DEB

International designator: 1999-025BUE

Object number (NORAD): 31442

Object ID (CCSDS): 31442

Country: PEOPLES REPUBLIC OF CHINA (PRC)

Current information (Y/N): Y

RCS size: SMALL

Orbital parameters

Period: 100.424 minutes

Inclination: 98.5305 deg

SMA: 7156.787 km

Apoapsis: 835.345 km

Periapsis: 721.959 km

RAAN: 70.4894 deg

Eccentricy: 0.00792158

Argument of periapsis: 19.4196 deg

Mean anomaly: 340.9978 deg

Mean motion: 14.3392245 rev/day

Mean motion (dot): 0.00001474 rev/day2

B* drag term: 0.00052575283 1/REarth

Two-line elements (TLE)

Creation date: Dec. 10, 2025, 7:58 p.m.

Reference frame: TEME

Reference center: EARTH

Epoch: Dec. 10, 2025, 11:31 a.m. UTC

TLE line 0: 0 FENGYUN 1C DEB

TLE line 1: 1 31442U 99025BUE 25344.48029897 .00001474 00000-0 52575-3 0 9997

TLE line 2: 2 31442 98.5305 70.4894 0079216 19.4196 340.9978 14.33922450973285

Live tracking on map

Real-time ground track for satellite FENGYUN 1C DEB.

In-orbit conjunctions

A list of the most updated potential collisions computed for object FENGYUN 1C DEB.

Target Orbit TCA Probability of collision Miss distance Type
THOR BURNER 2A R/B SSO 2025-10-22 14:41:28 0.000130922 214.0 (m) ROCKET BODY
CZ-6A DEB LEO 2025-02-26 00:11:27 0.0001117094 190.0 (m) DEBRIS
DELTA 1 DEB SSO 2024-07-12 15:36:21 0.0001314198 248.0 (m) DEBRIS

Associated space launch

Chinese polar orbiting meteorological satellite

FENGYUN 1C DEB was lifted into orbit during the mission ‘Long March 4B | Feng Yun 1C’, on board a Long March 4B space rocket.

The launch took place on May 10, 1999, 1:33 a.m. from Launch Complex 7.

For more information about the launch, click the button.

Launch to space Long March 4B | Feng Yun 1C
Long March 4B | Feng Yun 1C

Agency: N/A

Status: Launch Successful

Launch date: May 10, 1999, 1:33 a.m. UTC

Rocket: Long March 4B

Launch pad: Launch Complex 7

Location: Taiyuan Satellite Launch Center, People's Republic of China

...

Latest news about this satellite

There are no fresh news available about this satellite. Check back as we update our databases every day.


Newsletter sign-up

Weekly statistics, charts and insights to help you stay on top of the space industry.